Showing default

COSMOS 2444 (GLONASS), 33380

Orbit data source: Space-Track

COSMOS 2444 (GLONASS), 33380 is a Commonwealth of Independent States-origin payload satellite in MEO that was launched on Thu, 25 Sep 2008 UTC via a PROTON-M/DM-2 launch vehicle from the Tyuratam Missile And Space Complex (TTMTR). Payload-class satellites include a variety of spacecraft equipped with specific instruments for various scientific and technological missions. These include communications satellites like Starlink; space stations such as the ISS; scientific satellites like the Hubble; Earth observation satellites from companies like Planet Labs, Umbra, and HawkEye 360; GPS; miniature CubeSats for education and research; and military/defense satellites.

Loading next visibility...
Identifier
33380, 2008-046C
Orbit
MEO
Country
Flag of CISCIS
Related business
Manufacturer
Resehetnev ISS
Mission
Non-operational Defense Navigation
Bus & Motor
URAGAN, Unknown motor
Mass
1,450 kg wet, ~1,200 kg dry
Launch date (UTC)
2008-09-25 (17 years ago)
Launch vehicle
PROTON-M/DM-2
Launch site
Tyuratam Missile And Space Complex (TTMTR)
Object type
Payload
Rocket body
Debris
Shape & HBR
Cyl + 1 Ant + 2 Pan, 3.9 m
Radar Cross Section
8.467 m², Large (>1 m²)

Expand to show TLE details & history
Last TLE update: 3 days ago

TLE from 3 days ago
0 COSMOS 2444 (GLONASS)
1 33380U 08046C   26060.20183602 -.00000048  00000-0  00000-0 0  9994
2 33380  65.5446 318.6785 0018921 292.3286 247.2072  2.13112139135646
Epoch: 2026-03-01T04:50Z
TLE epoch observation values (Epoch: 2026-03-01T04:50:38.632Z)
Latitude
0.59791°
Longitude
-93.25882°
Altitude
19,148.386 km
Speed
3.95 km/s
True Right ascension
09h 13m 39s
True Declination
0° 35' 49"
Sunlit
Object was in daylight at epoch
Visualization orbit readout
Latitude
Unknown
Longitude
Unknown
Altitude
Unknown
Speed
Unknown
Apparent Right ascension
Unknown
Apparent Declination
Unknown
Sunlit
N/A
Visualization observer readout
Local Sidereal Time
20:45:30
Azimuth
Unknown
Elevation
Unknown
Doppler factor
Unknown
Orbital elements
Apogee altitude
19,176.936 km
Perigee altitude
19,080.413 km
Semi-major axis
25,506.812 km
Eccentricity
0.00189
Inclination
65.5446°
RAAN
318.6785°
Arg. of periapsis
292.3286°
True anomaly
247.0075°
Mean anomaly
247.2072°
Eccentric anomaly
247.10733°
Mean motion
0.53279 °/min
Orbital period
675.68 mins
BSTAR
0
Loading maneuver chart data...
Computing Atmospheric mass density...
Loading historical data...
Loading historical data...
Loading historical data...
Loading historical data...
Loading historical data...
Loading historical data...
Loading historical data...

Documentation

Showing up to 5 results
|